Theta_e
313 313 313 313 313 313 314 314 314 314 314 315 315 315 315 316 317 317 317 317 316 321 319 317 319 330 338 335 334 337 334 342 342 345 341 342 343 343 342 342 342 341 343 349 353
313 313 313 313 313 313 313 314 314 314 314 315 315 315 316 316 320 325 323 317 317 317 318 317 321 336 334 332 330 328 328 337 338 340 339 340 342 343 342 343 342 342 344 350 353
312 312 312 312 312 313 313 313 313 314 314 315 315 315 316 317 329 327 321 318 318 317 318 327 333 334 332 330 328 330 328 331 336 339 339 342 343 344 342 341 341 341 347 352 353
312 312 312 312 312 312 312 312 313 313 314 314 315 315 316 318 336 327 322 320 320 318 323 333 333 328 326 325 325 325 327 328 327 331 337 339 342 342 343 342 338 342 344 351 353
312 312 312 312 312 312 312 312 312 313 313 314 315 315 316 317 319 331 324 321 318 324 329 332 327 327 324 323 323 323 323 326 328 329 334 336 339 338 339 340 338 343 349 350 351
311 311 311 312 312 312 312 313 313 313 313 314 314 315 316 315 328 327 326 323 319 321 329 327 328 327 325 322 322 324 325 326 330 330 335 334 335 338 342 340 344 348 349 350 351
311 311 311 312 312 312 313 313 313 313 313 314 314 315 316 316 324 327 326 324 320 323 327 327 328 326 325 321 325 328 328 329 329 333 334 335 337 334 346 345 350 351 351 351 352
311 311 311 312 312 313 313 314 314 314 316 315 315 316 316 318 322 326 326 322 320 318 325 327 327 326 326 325 325 326 326 330 330 333 334 331 333 337 352 351 352 352 352 353 352
311 311 312 312 312 313 314 314 316 321 324 321 318 319 317 319 321 325 326 323 322 319 325 327 326 324 324 323 320 321 326 329 333 333 333 332 333 339 351 351 351 352 352 352 350
309 311 311 312 312 313 314 315 320 321 323 321 323 320 319 325 326 325 326 325 324 322 324 325 324 320 319 320 317 323 332 329 333 332 333 334 335 342 349 351 351 351 352 350 346
307 308 309 311 312 313 314 319 318 319 318 319 320 319 319 321 326 327 327 326 327 326 321 322 319 320 321 322 323 327 327 327 326 326 333 331 338 342 347 350 348 349 348 344 339
307 308 308 309 311 313 315 318 315 315 315 317 318 318 320 320 321 325 327 326 326 325 321 321 320 319 320 321 324 325 325 324 324 328 332 333 336 337 342 342 345 347 343 337 335
307 307 308 309 310 312 315 317 316 316 314 316 317 318 318 319 320 324 326 327 324 323 322 322 323 321 323 323 324 323 324 323 324 324 330 332 329 338 339 341 340 346 337 335 337
306 307 307 308 310 311 314 317 317 317 310 314 318 319 318 320 321 325 326 326 324 324 322 323 323 324 324 325 322 324 322 323 323 323 322 324 326 322 332 336 339 340 338 334 336
306 306 307 307 308 310 315 317 318 318 314 318 319 320 318 320 322 322 326 326 323 323 323 324 326 326 326 326 323 325 323 322 322 322 324 323 321 321 331 334 334 338 339 337 335
306 306 307 307 308 309 315 317 318 310 314 318 319 318 318 319 320 324 325 326 325 323 323 322 324 324 324 325 324 325 322 317 317 318 321 322 322 324 331 331 330 334 339 339 339
307 306 306 307 308 310 315 317 311 312 314 319 318 316 317 317 319 321 324 324 324 324 324 323 323 323 325 325 324 320 317 319 320 319 321 321 327 326 329 332 333 332 336 338 336
307 307 307 307 307 313 314 310 311 312 314 316 316 315 318 317 318 319 323 324 322 321 321 323 322 324 324 323 324 319 319 319 322 320 321 321 325 326 334 342 339 335 335 336 336
307 307 307 307 307 312 315 310 309 311 316 315 315 315 316 317 318 319 319 320 321 321 323 323 325 324 325 323 324 322 321 317 317 316 321 320 324 332 339 341 345 344 340 336 342
307 306 310 311 307 311 310 309 310 313 314 314 316 315 316 316 317 316 316 317 319 321 321 321 324 322 324 324 323 323 319 321 316 322 324 321 329 328 340 341 345 343 341 335 332
306 312 314 309 307 313 310 309 313 315 314 314 315 315 315 316 316 317 317 319 320 320 320 318 320 321 323 324 323 320 320 316 315 317 321 322 324 324 334 340 344 339 337 332 332
307 311 311 309 310 307 310 312 314 314 313 313 314 314 315 315 314 316 317 319 319 320 321 319 317 321 321 321 322 321 320 317 320 321 317 319 321 330 329 335 338 341 335 334 332
311 313 310 313 306 307 309 313 313 312 313 314 314 314 314 315 315 314 317 319 319 319 320 319 319 321 319 318 321 325 319 316 314 315 321 323 323 333 332 336 334 337 338 334 334
314 312 315 314 313 312 316 317 318 318 315 315 314 314 314 314 312 315 316 317 318 321 327 320 315 319 318 319 322 327 324 319 318 320 319 319 322 331 333 333 336 339 335 337 335
313 310 310 311 311 311 313 316 320 321 320 320 315 322 322 318 314 313 314 316 318 324 323 319 323 320 321 320 322 326 328 323 325 323 328 326 321 321 332 332 334 340 343 339 339
311 309 310 309 309 310 311 317 320 320 321 323 323 323 323 315 314 317 313 315 319 320 325 322 323 328 328 329 331 332 331 328 327 323 323 327 326 323 326 331 333 339 344 345 342
307 308 309 306 308 309 311 315 319 319 319 322 321 322 323 318 321 322 322 322 314 321 324 329 324 323 327 329 330 327 327 330 332 329 330 333 329 332 333 332 333 337 342 344 345
Wind_Speed
7 8 8 7 8 8 9 10 10 11 11 11 11 9 9 9 9 10 11 6 8 7 8 11 9 7 1 3 2 2 5 1 3 3 4 4 2 3 3 6 3 6 2 6 22
8 8 9 9 8 9 9 10 11 11 11 12 13 12 10 10 8 5 3 4 10 7 5 9 11 5 2 2 2 4 4 8 7 5 5 6 9 6 5 5 5 6 4 17 24
9 10 10 10 10 9 10 10 10 10 11 12 12 13 11 10 1 5 3 6 7 8 7 9 9 3 1 2 1 2 3 6 7 16 9 7 6 8 9 5 10 17 18 26 26
9 10 11 11 11 10 11 11 11 11 11 11 12 13 11 4 2 3 4 6 9 10 11 11 5 1 2 2 1 1 7 4 3 6 7 7 7 6 17 9 6 17 24 28 27
11 11 12 12 13 12 12 12 12 11 12 11 11 11 8 4 1 1 3 5 9 14 14 10 5 1 0 2 5 1 3 12 19 13 5 10 15 6 10 12 13 21 26 27 28
12 12 13 13 14 14 13 14 13 13 12 11 10 10 6 2 4 3 2 4 6 14 15 10 4 2 5 2 2 6 9 13 11 5 4 4 6 11 6 15 20 26 27 26 23
13 13 14 15 15 15 15 16 15 15 13 11 10 9 8 6 6 6 2 4 6 13 14 10 1 4 6 5 5 7 6 6 7 3 3 2 1 4 17 23 28 30 29 25 23
14 14 15 15 16 16 15 17 16 15 12 10 9 8 4 5 6 7 4 7 9 14 11 6 4 6 3 5 7 4 4 5 4 5 2 5 9 3 20 26 24 27 26 24 22
16 16 15 16 16 16 15 17 16 12 8 6 6 4 3 4 7 10 7 6 11 13 10 5 5 2 2 4 5 7 1 3 8 6 2 2 7 4 13 15 18 25 26 24 21
16 16 16 16 15 15 14 16 10 8 5 6 6 4 5 3 3 13 11 9 9 11 5 3 1 3 4 5 3 3 1 3 5 4 3 3 6 3 16 21 25 27 28 25 20
17 16 16 15 14 14 13 9 6 2 6 6 5 4 6 2 3 9 16 14 8 5 3 2 3 6 8 5 3 1 1 3 6 9 3 6 5 5 7 10 15 22 22 20 19
16 16 15 13 12 10 8 5 10 10 11 13 15 21 21 14 2 8 18 11 6 4 4 4 5 10 4 4 3 2 2 6 7 5 4 1 5 4 3 3 17 24 18 15 15
16 16 15 11 9 5 1 2 10 9 4 10 9 11 17 16 10 13 21 13 5 5 6 6 2 6 6 3 4 3 4 4 7 4 3 5 3 5 2 3 6 24 15 15 11
17 16 16 9 4 3 3 1 7 6 5 7 4 2 10 9 4 13 20 13 3 10 8 5 5 5 4 4 6 2 6 6 6 3 3 2 3 4 2 6 6 22 22 14 12
17 17 14 10 7 1 6 2 3 3 3 2 1 2 9 12 7 13 21 11 9 6 6 7 3 3 3 4 6 7 4 4 3 4 3 3 4 6 5 6 6 14 24 17 15
16 17 15 11 8 4 8 3 2 5 6 4 2 2 4 3 3 6 8 9 5 5 0 6 2 4 6 3 6 5 2 6 4 3 3 2 4 6 3 5 3 7 15 18 20
17 15 16 11 2 5 9 6 4 3 5 5 3 4 3 3 2 3 7 6 6 4 2 4 5 4 8 4 0 4 6 3 3 4 5 2 1 8 3 3 3 3 15 21 16
18 15 14 10 7 9 8 4 4 2 5 5 4 4 2 4 3 3 6 5 1 5 3 3 7 5 3 8 7 5 7 5 5 4 4 2 4 4 1 6 3 16 18 17 16
18 14 9 5 11 14 9 3 7 6 2 6 5 6 6 4 2 2 7 7 9 9 8 5 5 4 5 4 8 3 3 3 8 4 2 4 6 2 3 4 6 15 21 22 21
18 10 0 4 14 16 4 5 3 3 4 3 3 3 4 5 2 4 6 3 4 9 7 6 2 3 5 1 4 3 5 3 2 4 3 5 5 5 6 7 6 11 23 22 16
11 1 6 12 19 10 4 6 4 4 4 4 1 2 2 3 1 2 3 2 1 3 9 6 5 5 4 2 7 1 1 6 5 3 6 2 6 7 12 15 15 13 27 17 12
5 3 9 20 4 1 4 5 1 2 3 2 0 2 2 3 3 2 4 3 2 3 7 5 4 4 11 5 1 3 6 6 5 4 2 3 6 3 5 9 17 21 27 12 7
5 3 9 7 3 1 3 2 1 1 1 1 2 3 1 1 3 3 2 1 3 1 5 7 2 2 9 5 1 5 4 5 5 3 6 6 6 3 1 10 22 22 24 16 10
4 2 2 3 3 3 2 1 1 2 2 3 3 3 2 2 4 4 3 3 11 5 3 8 3 7 7 8 3 2 4 5 6 4 5 6 6 4 8 10 15 22 24 20 12
6 2 1 1 3 2 2 3 2 5 5 8 3 5 2 3 3 4 3 5 5 3 2 4 4 4 4 5 5 4 4 6 5 5 6 2 7 7 15 18 22 26 20 21 19
4 3 3 1 3 0 3 3 2 3 1 3 3 7 2 5 1 3 7 3 4 5 4 3 2 2 2 2 3 4 6 7 5 4 3 3 7 5 8 15 17 23 22 23 25
4 4 3 4 3 2 1 0 2 2 2 4 4 3 4 3 15 23 18 22 10 5 2 2 3 3 3 3 2 3 6 5 4 3 5 3 6 4 3 9 19 26 27 27 27
Wind_Direction
1 357 358 358 359 355 355 354 355 356 355 353 351 346 339 327 309 287 274 252 222 205 190 188 185 188 142 86 86 83 65 155 231 148 260 245 219 143 126 127 128 176 236 224 163
347 344 344 345 348 344 347 343 344 346 345 344 347 346 346 334 324 345 278 185 184 182 193 190 173 173 356 46 116 94 107 202 197 202 239 227 207 183 151 173 163 176 228 176 176
337 337 335 335 339 339 336 332 334 334 336 336 341 344 346 341 52 9 75 147 157 170 166 153 162 150 39 336 9 101 150 200 233 233 227 224 226 197 155 228 200 192 179 178 184
331 330 329 327 329 331 329 328 329 328 327 328 333 340 348 7 86 41 105 150 173 168 161 159 159 114 53 348 8 331 244 214 267 244 246 219 227 199 210 233 272 207 188 182 187
325 324 323 321 322 325 326 323 323 322 319 321 326 335 352 331 127 116 130 156 176 171 164 171 175 266 329 322 343 202 297 318 309 310 267 229 221 204 230 223 227 187 177 184 193
320 319 317 317 317 319 322 321 319 317 314 313 316 324 329 293 148 135 161 182 184 179 179 177 204 339 305 342 78 303 296 298 307 276 304 190 216 180 189 188 172 176 181 189 197
315 316 315 315 317 317 320 321 317 312 307 303 305 310 291 264 177 159 147 175 181 179 186 193 242 328 332 333 346 310 338 338 6 24 326 346 124 226 172 176 171 180 182 191 200
314 314 312 313 313 314 318 317 315 310 302 293 290 298 259 198 188 185 172 180 177 184 198 214 263 298 253 325 359 15 63 14 315 11 331 82 275 26 164 167 169 180 185 191 201
312 312 312 311 311 311 318 317 316 314 311 291 278 271 254 206 214 177 168 178 182 180 185 175 308 314 346 69 11 8 277 346 321 354 210 139 270 131 164 168 175 184 187 197 208
311 310 310 310 311 312 324 319 315 302 299 292 259 274 208 119 132 182 165 155 151 166 191 223 152 57 33 72 218 231 88 324 252 273 324 280 253 164 175 181 194 192 194 200 219
311 311 310 310 312 317 338 344 342 308 294 246 244 262 261 184 194 180 178 162 145 153 146 96 86 218 220 182 169 302 154 255 260 264 194 230 268 205 164 187 215 212 205 210 234
314 314 312 315 312 314 350 53 32 320 303 284 262 250 246 247 279 184 185 171 162 162 106 25 244 229 192 173 209 253 310 271 282 294 109 215 275 338 156 225 218 227 215 227 251
317 318 316 323 306 300 2 94 352 331 267 290 251 246 237 226 219 197 178 180 140 140 178 171 237 111 166 185 190 228 207 249 223 354 36 134 296 304 326 224 234 236 246 236 255
318 318 319 333 288 271 184 252 334 326 37 278 257 257 185 151 217 197 186 166 151 182 168 225 242 211 192 219 162 253 208 247 276 69 235 32 273 305 313 280 208 238 237 237 261
320 317 317 319 293 301 180 203 318 317 347 252 220 131 169 176 148 195 191 184 159 171 122 240 191 159 177 204 161 235 137 198 244 164 94 341 83 266 341 289 246 241 234 234 250
318 314 311 307 300 245 193 173 198 42 255 345 110 137 130 232 168 110 159 184 184 137 234 231 229 185 207 182 180 274 99 44 46 78 39 256 136 283 215 230 350 257 228 229 231
314 309 303 294 285 180 184 161 53 163 324 333 344 15 179 188 243 109 151 166 157 117 290 313 245 228 204 261 118 97 66 341 1 14 213 243 82 237 285 295 250 180 207 219 224
317 309 293 281 234 192 181 64 183 247 261 304 349 317 146 161 175 117 120 173 202 95 117 162 322 184 189 189 174 179 153 155 197 191 248 296 228 258 8 352 311 159 177 188 204
327 316 296 257 202 188 182 121 204 203 295 341 323 55 355 3 116 128 181 193 195 167 174 159 272 283 216 185 144 176 178 165 105 4 61 266 289 20 87 32 107 144 159 173 184
336 326 42 195 176 177 94 223 229 226 317 17 44 35 18 330 84 150 173 218 217 188 154 205 290 251 286 125 61 157 151 85 7 132 210 300 289 237 208 197 208 186 176 189 210
340 18 349 154 159 170 168 220 239 264 30 48 39 324 310 314 349 210 194 307 186 178 182 143 140 261 29 199 187 104 203 62 118 112 157 170 265 219 200 191 190 192 186 197 201
1 51 128 137 94 60 157 194 225 259 348 352 149 239 248 10 321 297 207 227 307 161 144 201 155 201 219 231 225 195 203 140 127 220 87 140 270 305 254 178 188 195 196 192 201
12 73 159 21 119 273 284 282 257 260 279 93 294 203 338 42 350 251 284 216 356 247 174 176 234 8 340 355 300 205 166 117 113 86 183 135 262 345 262 190 201 205 209 222 176
1 42 108 197 57 127 46 281 241 324 258 243 249 54 344 312 217 289 312 307 341 4 324 131 144 167 188 205 184 154 167 159 136 111 163 217 258 231 230 225 215 214 223 220 198
12 46 28 305 9 44 71 347 57 12 3 24 82 67 20 285 276 232 252 309 335 6 74 136 188 189 238 239 206 228 206 179 179 166 156 229 211 255 215 211 206 211 208 201 207
27 22 2 23 321 136 18 20 82 324 309 12 52 319 279 216 117 287 13 286 238 323 27 333 187 152 348 352 219 228 187 208 250 155 258 188 257 249 272 197 189 206 203 202 208
29 9 344 2 356 91 184 305 72 316 260 235 344 306 300 220 301 279 258 260 267 291 260 31 115 80 248 348 4 341 236 193 217 187 149 171 227 158 240 186 183 202 204 201 206